COSMOS 2251 DEB, 33971

Orbit data source: Space-Track

COSMOS 2251 DEB, 33971 is space debris in LEO originally from a launch on Wed, 16 Jun 1993 UTC launched from the Plesetsk Missile And Space Complex (PKMTR). The debris from Iridium 33, an American commercial communications satellite, has been tracked extensively since its accidental collision with the defunct Russian satellite Cosmos 2251 in 2009. This event, occurring at high speed in low Earth orbit (LEO), generated thousands of pieces of space debris, significantly increasing the risk of further collisions. The Iridium 33 debris cloud has impacted space traffic management and orbital debris mitigation strategies, making it a subject of ongoing study in space situational awareness.

Loading next visibility...
Identifier
33971, 1993-036FE
Orbit
LEO
Country
Flag of CISCIS
Related business
Manufacturer
Unknown
Mission
Spacecraft
Bus & Motor
Unknown
Mass
Unknown
Launch date (UTC)
1993-06-16 (33 years ago)
Launch vehicle
Unknown
Launch site
Plesetsk Missile And Space Complex (PKMTR)
Object type
Payload
Rocket body
Debris
Shape & HBR
Unknown shape, 0.2 m
Radar Cross Section
Medium (>0.1 m² and <1 m²)

Expand to show TLE details & history
Last TLE update: 10 hours ago

TLE from 10 hours ago
0 COSMOS 2251 DEB
1 33971U 93036FE  26175.23321672  .00000398  00000-0  13454-3 0  9991
2 33971  74.0246 256.0202 0019740 312.8996 114.6641 14.40045845909246
Epoch: 2026-06-24T05:35Z
TLE epoch observation values (Epoch: 2026-06-24T05:35:49.924Z)
Latitude
62.96483°
Longitude
-66.41234°
Altitude
774.711 km
Speed
7.47 km/s
True Right ascension
19h 19m 45s
True Declination
62° 49' 32"
Sunlit
Object was in daylight at epoch
Visualization orbit readout
Latitude
Unknown
Longitude
Unknown
Altitude
Unknown
Speed
Unknown
Apparent Right ascension
Unknown
Apparent Declination
Unknown
Sunlit
N/A
Visualization observer readout
Local Sidereal Time
03:11:44
Azimuth
Unknown
Elevation
Unknown
Doppler factor
Unknown
Orbital elements
Apogee altitude
770.05 km
Perigee altitude
741.885 km
Semi-major axis
7,134.104 km
Eccentricity
0.00197
Inclination
74.0246°
RAAN
256.0202°
Arg. of periapsis
312.8996°
True anomaly
114.86946°
Mean anomaly
114.6641°
Eccentric anomaly
114.7668°
Mean motion
3.60192 °/min
Orbital period
99.95 mins
BSTAR
0.00013454
Loading maneuver chart data...
Computing Atmospheric mass density...

Documentation

Showing up to 5 results
|